Location: Newark
(43.0000°N, 1.6781°W)
Time: 06:02:11
(UTC+00:00)

N. Korean satellite - Pass Details

Date: 06 December 2021
Orbit: 447 x 491 km, 97.3° (Epoch: 25 January)

Event Time Altitude Azimuth Distance (km) Brightness Sun altitude
Rises 17:34:55 0° 209° (SSW) 2,523 11.0 -11.2°
Reaches altitude 10° 17:37:52 10° 237° (WSW) 1,640 10.7 -11.7°
Maximum altitude 17:39:40 13° 268° (W) 1,436 10.1 -12.0°
Drops below altitude 10° 17:41:28 10° 299° (WNW) 1,633 9.8 -12.3°
Sets 17:44:24 0° 327° (NNW) 2,504 10.4 -12.8°
